Torna al catalogo

DMSP 5D-2 F13 DEB

AttivoSSO
NORAD 42281·DEBRIS·🇺🇸 United States

Lanciato Mar 24, 1995 da Vandenberg Space Force Base

Loading…

Prossimi Passaggi (prossime 24 ore)

TLE

AggiornatoSource: Space-Track

Epoca: Sep 14, 2026, 10:25 UTC

1 42281U 95015GX  26257.43404345  .00006543  00000-0  12336-2 0  9991
2 42281  98.5380 328.5334 0027288 123.9263 236.4538 14.64624403596862

Traccia DMSP 5D-2 F13 DEB in tempo reale con AllMySat

Download on the App Store